DateTimeUTC,F1_A11,F1_S11,BsB_S11,BsG_S11,BsR_S11,BbsB_S11,BbsG_S11,BbsR_S11,BaB_A11,BaG_A11,BaR_A11,Tu_S11,T_S11,Uu_S11,U_S11,P_S11,T1_A11
2021-08-11T06:00:00Z,00040200,20000000,,,,,,,-000.13,0000.07,-000.10,18.2,24.8,13.3,08.9,0676.2,31.0
2021-08-11T06:01:00Z,00040200,20000000,,,,,,,0000.25,-000.03,0000.22,18.2,24.8,13.3,08.9,0676.2,31.0
2021-08-11T06:02:00Z,00040200,20000000,,,,,,,-000.24,-000.34,-000.36,18.2,24.8,13.3,08.9,0676.2,31.0
2021-08-11T06:03:00Z,00040200,60000000,,,,,,,0000.40,0000.27,0000.23,18.2,24.8,13.3,08.9,0676.2,31.0
2021-08-11T06:04:00Z,00040200,40000000,0000.20,0000.50,0000.05,0000.33,0000.05,-000.05,-000.62,-000.27,-000.13,18.3,24.6,13.3,09.0,0677.2,31.0
2021-08-11T06:05:00Z,00040200,00000000,0001.80,0000.85,0000.13,-000.26,0000.07,0000.04,0000.32,0000.55,0000.26,18.3,24.5,13.4,09.1,0677.2,31.0
2021-08-11T06:06:00Z,00040200,00000000,0000.98,0000.70,0000.31,0000.00,-000.20,0000.22,0000.04,-000.04,-000.19,18.3,24.5,13.4,09.2,0677.2,31.0
2021-08-11T06:07:00Z,00040200,00000000,0001.37,0000.72,0000.64,0000.53,0000.29,0000.23,0000.10,0000.00,0000.79,18.3,24.5,13.4,09.2,0677.2,31.0
2021-08-11T06:08:00Z,00040200,00000000,0001.31,0000.54,0000.52,0000.13,-000.25,0000.07,0000.15,0000.05,0000.01,18.4,24.6,13.4,09.2,0677.2,31.0
2021-08-11T06:09:00Z,00040200,00000000,0000.78,0000.69,0000.35,0000.25,0000.31,-000.03,-000.03,0000.01,-000.13,18.5,24.6,13.4,09.3,0677.2,31.0
2021-08-11T06:10:00Z,00040200,00000000,0001.64,0000.58,0000.40,0000.46,0000.01,0000.27,-000.34,-000.21,-000.14,18.6,24.7,13.3,09.2,0677.2,31.0
2021-08-11T06:11:00Z,00040200,00000000,0001.74,0000.66,0000.55,0000.91,-000.10,-000.07,0000.10,0000.07,-000.12,18.6,24.7,13.3,09.2,0677.2,31.0
2021-08-11T06:12:00Z,00040200,00000000,0001.28,0000.75,0000.51,-000.27,-000.17,0000.35,0000.03,0000.30,0000.30,18.6,24.7,13.3,09.2,0677.2,31.0
2021-08-11T06:13:00Z,00040200,00000000,0001.17,0000.49,0000.53,-000.25,0000.04,0000.31,-000.27,-000.42,-000.14,18.6,24.7,13.3,09.2,0677.3,31.0
2021-08-11T06:14:00Z,00040200,00000000,0001.46,0000.69,0000.28,0000.11,0000.16,0000.12,-000.05,-000.14,-000.01,18.6,24.7,13.3,09.2,0677.3,31.0
2021-08-11T06:15:00Z,00040200,00000000,0001.45,0000.63,0000.52,0000.35,-000.05,0000.05,-000.26,0000.10,-000.13,18.6,24.7,13.3,09.2,0677.3,31.0
2021-08-11T06:16:00Z,00040200,00000000,0000.94,0000.61,0000.59,0000.09,0000.14,0000.56,0000.02,-000.25,0000.09,18.6,24.7,13.2,09.1,0677.3,31.0
2021-08-11T06:17:00Z,00040200,00000000,0002.22,0000.64,0000.57,0000.13,-000.10,0000.24,0000.07,0000.02,0000.51,18.6,24.7,13.2,09.1,0677.3,31.0
2021-08-11T06:18:00Z,00040200,00000000,0001.32,0000.77,0000.85,0000.17,-000.14,0000.09,0000.04,-000.07,-000.07,18.6,24.7,13.3,09.2,0677.3,31.0
2021-08-11T06:19:00Z,00040200,00000000,0000.81,0000.68,0000.73,0000.60,-000.15,0000.27,-000.21,0000.01,-000.36,18.6,24.7,13.3,09.2,0677.3,31.0
2021-08-11T06:20:00Z,00040200,00000000,0002.30,0000.90,0000.28,-000.39,0000.11,0000.40,-000.32,-000.11,-000.17,18.6,24.6,13.3,09.1,0677.3,31.0
2021-08-11T06:21:00Z,00040200,00000000,0001.30,0000.44,0000.48,0000.40,0000.06,0000.11,0000.18,-000.35,-000.08,18.6,24.7,13.2,09.1,0677.3,31.0
2021-08-11T06:22:00Z,00040200,00000000,0001.74,0000.83,0000.67,-000.05,-000.28,0000.45,-000.16,-000.08,0000.31,18.6,24.6,13.3,09.1,0677.3,31.0
2021-08-11T06:23:00Z,00040200,00000000,0001.53,0000.38,0000.43,-000.33,-000.22,0000.22,-000.34,-000.10,-000.56,18.5,24.6,13.2,09.1,0677.3,31.0
2021-08-11T06:24:00Z,00040200,00000000,0001.29,0000.71,0000.60,-000.36,0000.27,0000.13,-000.40,-000.49,0000.13,18.5,24.6,13.2,09.1,0677.4,31.0
2021-08-11T06:25:00Z,00040200,00000000,0000.65,0000.87,0000.44,-000.40,0000.08,0000.02,0000.08,0000.14,-000.21,18.5,24.6,13.1,09.0,0677.4,31.0
2021-08-11T06:26:00Z,00040200,00000000,0001.13,0000.82,0000.34,0000.15,0000.07,0000.06,-000.31,-000.28,-000.24,18.5,24.6,13.0,08.9,0677.4,31.0
2021-08-11T06:27:00Z,00040200,00000000,0001.42,0000.57,0000.49,-000.09,0000.12,0000.01,-000.57,-000.41,-000.04,18.5,24.6,13.0,08.9,0677.4,31.0
2021-08-11T06:28:00Z,00040200,00000000,0001.27,0000.75,0000.73,-000.19,0000.32,0000.20,0000.04,-000.27,-000.17,18.5,24.6,13.0,08.9,0677.4,31.0
2021-08-11T06:29:00Z,00040200,00000000,0001.48,0000.62,0000.77,0000.15,0000.01,0000.10,-000.46,-000.14,0000.10,18.5,24.6,12.9,08.9,0677.4,31.0
2021-08-11T06:30:00Z,00040200,00000000,0001.98,0000.62,0000.28,-000.04,-000.06,0000.20,0000.23,0000.08,0000.04,18.5,24.6,12.8,08.8,0677.4,31.0
2021-08-11T06:31:00Z,00040200,00000000,0000.92,0000.47,0000.27,-000.27,0000.07,0000.15,-000.20,-000.30,-000.16,18.5,24.6,12.8,08.8,0677.4,31.0
2021-08-11T06:32:00Z,00040200,00000000,0001.11,0000.07,0000.28,0000.33,-000.20,0000.21,-000.37,0000.11,-000.28,18.5,24.6,12.8,08.8,0677.4,31.0
2021-08-11T06:33:00Z,00040200,00000000,0000.74,0000.51,0000.06,-000.26,0000.14,0000.23,0000.34,0000.11,0000.10,18.5,24.6,12.7,08.8,0677.4,31.0
2021-08-11T06:34:00Z,00040200,00000000,0000.99,0000.70,0000.67,0000.07,0000.01,0000.02,-000.47,-000.08,0000.15,18.5,24.5,12.7,08.8,0677.4,31.0
2021-08-11T06:35:00Z,00040200,00000000,0001.18,0000.76,0000.42,-000.24,-000.08,0000.23,-000.27,-000.61,-000.53,18.5,24.6,12.7,08.7,0677.4,31.0
2021-08-11T06:36:00Z,00040200,00000000,0001.44,0000.57,0000.44,0000.90,0000.19,0000.10,0000.08,0000.10,0000.18,18.5,24.6,12.8,08.8,0677.4,31.0
2021-08-11T06:37:00Z,00040200,00000000,0001.08,0000.48,0000.58,0000.87,-000.04,0000.31,0000.01,0000.10,0000.16,18.5,24.5,12.8,08.8,0677.4,31.0
2021-08-11T06:38:00Z,00040200,00000000,0001.22,0000.43,0000.18,0000.17,-000.05,-000.10,-000.06,-000.25,-000.19,18.5,24.5,12.8,08.8,0677.4,31.0
2021-08-11T06:39:00Z,00040200,00000000,0000.63,0000.01,0000.21,0000.07,-000.20,-000.06,0000.08,0000.98,0000.13,18.5,24.5,12.8,08.8,0677.4,31.0
2021-08-11T06:40:00Z,00040200,00000000,0000.47,0000.34,0000.07,-000.12,-000.12,0000.08,-000.17,-000.81,-000.02,18.5,24.5,12.8,08.8,0677.4,31.0
2021-08-11T06:41:00Z,00040200,00000000,0000.55,0000.11,0000.10,0000.13,-000.01,0000.38,-000.22,-000.03,-000.01,18.4,24.5,12.8,08.8,0677.4,31.0
2021-08-11T06:42:00Z,00040200,00000000,0000.85,0000.16,0000.07,0000.08,-000.22,0000.32,-000.12,-000.37,0000.10,18.4,24.5,12.9,08.9,0677.4,31.0
2021-08-11T06:43:00Z,00040200,00000000,-000.11,-000.12,-000.07,-000.22,0000.14,0000.13,0000.04,0000.21,-000.17,18.4,24.5,12.9,08.9,0677.3,31.0
2021-08-11T06:44:00Z,00040200,00000000,0000.04,0000.07,0000.32,0000.11,0000.06,-000.10,-000.14,-000.02,0000.07,18.4,24.5,12.9,08.9,0677.4,31.0
2021-08-11T06:45:00Z,00040200,00000000,0000.38,-000.38,0000.04,0000.02,0000.15,0000.08,-000.06,-000.07,-000.01,18.4,24.5,12.9,08.9,0677.3,31.0
2021-08-11T06:46:00Z,00040200,00000000,0000.40,-000.03,0000.11,-000.08,-000.20,0000.13,-000.17,0000.18,0000.10,18.4,24.5,13.0,08.9,0677.3,31.0
2021-08-11T06:47:00Z,00040200,00000000,0000.68,-000.31,0000.18,0000.11,0000.13,0000.12,0000.15,-000.23,0000.22,18.4,24.5,12.9,08.9,0677.4,31.0
2021-08-11T06:48:00Z,00040200,00000000,0000.10,0000.12,0000.13,0000.18,0000.03,-000.05,-000.27,0000.10,-000.48,18.4,24.5,12.9,08.9,0677.3,31.0
2021-08-11T06:49:00Z,00040200,00000000,0000.91,0000.04,0000.26,-000.05,-000.32,0000.21,0000.36,-000.01,0000.29,18.4,24.4,12.9,08.9,0677.4,31.0
2021-08-11T06:50:00Z,00040200,00000000,0001.06,0000.09,-000.06,0000.39,0000.13,0000.12,-000.02,0000.21,-000.16,18.4,24.5,13.0,09.0,0677.3,31.0
2021-08-11T06:51:00Z,00040200,00000000,0000.68,-000.11,-000.22,-000.34,-000.09,0000.41,0000.04,-000.44,0000.14,18.4,24.5,12.9,08.9,0677.3,31.0
2021-08-11T06:52:00Z,00040200,00000000,0000.07,0000.28,0000.23,-000.20,-000.06,0000.24,-000.12,0000.20,0000.15,18.4,24.5,12.9,08.9,0677.3,31.0
2021-08-11T06:53:00Z,00040200,00000000,-000.45,0000.11,0000.07,0000.30,0000.27,0000.01,0000.11,0000.24,0000.03,18.5,24.5,12.9,08.9,0677.3,31.0
2021-08-11T06:54:00Z,00040200,00000000,0000.58,-000.09,0000.08,0000.80,0000.02,-000.26,-000.04,-000.35,-000.17,18.6,24.6,12.9,08.9,0677.3,31.0
2021-08-11T06:55:00Z,00040200,00000000,-000.22,-000.23,-000.17,-000.44,0000.17,0000.14,-000.26,0000.06,0000.32,18.6,24.6,12.9,08.9,0677.3,31.0
2021-08-11T06:56:00Z,00040200,00000000,0000.93,-000.06,0000.06,0000.62,0000.20,-000.03,0000.18,-000.28,-000.52,18.6,24.6,12.9,08.9,0677.3,31.0
2021-08-11T06:57:00Z,00040200,40000000,,,,,,,0000.03,0000.26,0000.19,18.7,24.7,12.8,08.9,0677.4,31.0
2021-08-11T06:58:00Z,00040200,60000000,,,,,,,-000.41,-000.37,-000.22,18.4,24.8,12.9,08.7,0676.3,31.0
2021-08-11T06:59:00Z,00040200,20000000,,,,,,,-000.01,-000.10,0000.05,18.4,24.9,12.9,08.7,0676.3,31.0
